MARKET Weather Reports


time (UTC)temp
F
wind
direction
speed
knots
gust
knots
rain 1hr
in
rain 24hr
in
rain mn
in
humidity
%
barometer
mb
20260906090130 60 314 13.0 14.8 0.00 0.00 0.00 78 1011.7
20260906084458 60 323 13.0 14.8 0.00 0.00 0.00 78 1011.5
20260906074129 60 330 13.9 15.6 0.00 0.00 0.00 81 1010.6
20260906072130 60 326 14.8 16.5 0.00 0.00 0.00 81 1010.5
20260906070457 59 328 13.9 14.8 0.00 0.00 0.00 84 1010.2
20260906064458 59 332 14.8 15.6 0.00 0.00 0.00 82 1010.0
20260905200459 58 10 16.5 20.0 0.00 0.00 0.00 76 1003.7
20260905190455 58 16 20.0 23.5 0.00 0.00 0.00 68 1003.1
20260905180454 59 20 20.9 24.3 0.00 0.00 0.00 75 1002.1
20260905174126 59 19 21.7 24.3 0.00 0.00 0.00 73 1001.8
20260905170456 59 16 16.5 18.2 0.00 0.00 0.00 84 1001.4
20260905164458 59 22 14.8 16.5 0.00 0.00 0.00 83 1001.2
20260905162128 58 356 14.8 21.7 0.00 0.00 0.00 84 1000.8
20260905150456 59 309 14.8 16.5 0.00 0.00 0.00 75 1000.1
20260905144456 59 305 14.8 16.5 0.00 0.00 0.00 74 1000.0
20260905142456 59 303 15.6 18.2 0.00 0.00 0.00 81 999.9
20260905134455 59 314 14.8 16.5 0.00 0.00 0.00 79 999.5
20260905130500 59 314 14.8 16.5 0.00 0.00 0.00 81 999.4
20260905124455 59 312 14.8 17.4 0.00 0.00 0.00 80 999.2
20260905122127 59 322 13.9 15.6 0.00 0.00 0.00 78 999.1
20260905114456 59 324 13.9 15.6 0.00 0.00 0.00 71 998.8
20260905112128 59 325 13.0 16.5 0.00 0.00 0.00 70 998.8
20260905102456 59 333 11.3 13.0 0.00 0.00 0.00 71 998.1
20260905100456 59 339 11.3 13.0 0.00 0.00 0.00 70 997.9
20260905094455 59 349 12.2 13.9 0.00 0.00 0.00 70 997.7
20260905092456 59 352 12.2 14.8 0.00 0.00 0.00 73 997.5